SV1BYK-2 Weather Reports


Display with metric or nautical units.
time (UTC)temp
F
wind
direction
speed
MPH
gust
MPH
rain 1hr
in
rain 24hr
in
rain mn
in
humidity
%
barometer
mb
20260504211117 58 292 2.0 2.0 0.00 0.00 0.00 67 1012.2
20260504210219 58 281 1.0 4.0 0.00 0.00 0.00 67 1012.3
20260504205403 59 272 2.0 4.0 0.00 0.00 0.00 67 1012.4
20260504204503 58 270 0.0 2.0 0.00 0.00 0.00 67 1012.4
20260504203815 58 270 0.0 4.0 0.00 0.00 0.00 67 1012.4
20260504202703 59 265 1.0 4.0 0.00 0.00 0.00 66 1012.4
20260504201804 59 261 0.0 4.0 0.00 0.00 0.00 66 1012.5
20260504201117 59 264 1.0 4.0 0.00 0.00 0.00 66 1012.4
20260504200004 59 247 1.0 4.0 0.00 0.00 0.00 65 1012.5
20260504195403 59 242 2.0 4.0 0.00 0.00 0.00 64 1012.7
20260504194714 59 246 1.0 6.0 0.00 0.00 0.00 64 1012.5
20260504193816 59 243 1.0 4.0 0.00 0.00 0.00 63 1012.5
20260504192703 59 238 2.0 4.0 0.00 0.00 0.00 62 1012.5
20260504191804 59 247 1.0 4.0 0.00 0.00 0.00 62 1012.3
20260504191113 59 227 2.0 4.0 0.00 0.00 0.00 61 1012.5
20260504190004 60 238 2.0 4.0 0.00 0.00 0.00 60 1012.3
20260504185617 60 222 1.0 6.0 0.00 0.00 0.00 60 1012.1
20260504184503 60 217 2.0 4.0 0.00 0.00 0.00 60 1012.2
20260504183817 60 157 2.0 4.0 0.00 0.00 0.00 59 1012.1
20260504182914 60 187 2.0 4.0 0.00 0.00 0.00 58 1012.2
20260504182016 60 231 1.0 7.0 0.00 0.00 0.00 59 1012.1
20260504181114 60 266 2.0 4.0 0.00 0.00 0.00 58 1011.9
20260504180216 60 267 2.0 4.0 0.00 0.00 0.00 58 1011.8
20260504175403 60 241 1.0 4.0 0.00 0.00 0.00 57 1011.8
20260504174715 60 248 1.0 4.0 0.00 0.00 0.00 56 1012.0
20260504173818 60 257 1.0 7.0 0.00 0.00 0.00 56 1011.8
20260504172703 60 260 3.0 7.0 0.00 0.00 0.00 58 1011.8
20260504172017 61 246 2.0 4.0 0.00 0.00 0.00 57 1011.7
20260504171114 61 252 2.0 6.0 0.00 0.00 0.00 57 1011.5
20260504150903 71 276 5.0 11.0 0.00 0.00 0.00 25 1011.5
20260504150218 72 310 2.0 8.0 0.00 0.00 0.00 25 1011.5
20260504141116 73 300 2.0 11.0 0.00 0.00 0.00 25 1011.5
20260504130214 67 300 9.0 16.0 0.00 0.00 0.00 29 1011.7
20260504100216 65 311 3.0 16.0 0.00 0.00 0.00 36 1013.6
20260504081804 64 331 2.0 16.0 0.00 0.00 0.00 36 1013.4
20260504081115 64 310 4.0 13.0 0.00 0.00 0.00 37 1013.7
20260504080217 64 328 2.0 22.0 0.00 0.00 0.00 36 1013.6
20260504070218 60 288 0.0 9.0 0.00 0.00 0.00 46 1013.4
20260504060213 59 297 1.0 2.0 0.00 0.00 0.00 51 1013.1
20260504050004 53 315 0.0 2.0 0.00 0.01 0.00 62 1013.1
20260504045616 52 315 0.0 2.0 0.00 0.01 0.00 62 1012.9
20260504044504 52 315 0.0 2.0 0.00 0.01 0.00 64 1013.1
20260504043815 51 315 0.0 2.0 0.00 0.01 0.00 64 1012.7
20260504042703 51 315 0.0 2.0 0.00 0.01 0.00 64 1012.8
20260504042015 51 315 0.0 2.0 0.00 0.01 0.00 64 1012.9
20260504040904 51 315 0.0 2.0 0.00 0.01 0.00 62 1012.8
20260504040215 51 315 1.0 4.0 0.00 0.01 0.00 61 1013.0
20260504035403 51 315 2.0 4.0 0.00 0.01 0.00 61 1012.6
20260504034503 51 315 1.0 2.0 0.00 0.01 0.00 63 1012.6
20260504033603 50 315 0.0 2.0 0.00 0.01 0.00 63 1012.5
20260504032703 50 315 0.0 2.0 0.00 0.01 0.00 63 1012.6
20260504031804 50 329 1.0 4.0 0.00 0.01 0.00 63 1012.6
20260504030904 49 360 2.0 4.0 0.00 0.01 0.00 65 1012.6
20260504030215 49 360 0.0 2.0 0.00 0.01 0.00 64 1012.6
20260504025403 49 360 0.0 2.0 0.00 0.01 0.00 64 1012.6
20260504024503 50 360 0.0 2.0 0.00 0.01 0.00 63 1012.5
20260504023603 50 360 0.0 2.0 0.00 0.01 0.00 63 1012.5
20260504022703 50 360 0.0 2.0 0.00 0.01 0.00 62 1012.3
20260504022016 51 360 2.0 2.0 0.00 0.01 0.00 61 1012.3
20260504020904 51 2 1.0 2.0 0.00 0.01 0.00 61 1012.6
20260504020004 51 22 1.0 2.0 0.00 0.01 0.00 61 1012.7
20260504015403 51 28 0.0 2.0 0.00 0.01 0.00 60 1012.4
20260504014715 51 39 1.0 2.0 0.00 0.01 0.00 60 1012.6
20260504013603 51 59 1.0 2.0 0.00 0.01 0.00 60 1012.6
20260504012703 51 67 1.0 2.0 0.00 0.01 0.00 60 1012.6
20260504012017 51 67 0.0 2.0 0.00 0.01 0.00 60 1012.4
20260504011115 51 58 1.0 4.0 0.00 0.01 0.00 59 1012.3
20260504010217 50 10 0.0 2.0 0.00 0.01 0.00 59 1012.5
20260504005613 50 360 0.0 2.0 0.00 0.01 0.00 60 1012.4
20260504004503 50 360 0.0 2.0 0.00 0.01 0.00 59 1012.3
20260504003603 51 360 0.0 2.0 0.00 0.01 0.00 59 1012.3
20260504002915 50 360 0.0 2.0 0.00 0.01 0.00 59 1012.5
20260504002018 51 5 0.0 2.0 0.00 0.01 0.00 58 1012.6
20260504001115 51 22 0.0 2.0 0.00 0.01 0.00 58 1012.5
20260504000219 51 22 0.0 2.0 0.00 0.01 0.00 57 1012.5
20260503235403 52 8 1.0 2.0 0.00 0.01 0.00 56 1012.6
20260503234716 52 326 2.0 6.0 0.00 0.01 0.00 55 1012.2
20260503233813 52 308 2.0 11.0 0.00 0.01 0.00 55 1012.6
20260503232916 53 315 5.0 8.0 0.00 0.01 0.00 55 1012.4
20260503231803 51 292 2.0 4.0 0.00 0.01 0.00 58 1012.5
20260503230904 51 292 0.0 2.0 0.00 0.01 0.00 58 1012.5
20260503230218 51 0 0.0 0.0 0.00 0.01 0.00 59 1012.6
20260503225614 51 292 0.0 2.0 0.00 0.01 0.00 59 1012.6
20260503224717 51 292 0.0 2.0 0.00 0.01 0.00 58 1012.4
20260503223814 52 303 1.0 4.0 0.00 0.04 0.00 57 1012.6
20260503222703 52 310 1.0 6.0 0.00 0.05 0.00 56 1012.5
20260503221804 53 309 3.0 11.0 0.00 0.05 0.00 54 1012.5
20260503221116 53 302 4.0 13.0 0.00 0.05 0.00 54 1012.7
20260503220213 53 302 8.0 11.0 0.00 0.05 0.00 54 1012.5
20260503215403 53 302 7.0 16.0 0.00 0.05 0.00 55 1012.5
20260503214503 53 305 8.0 16.0 0.00 0.05 0.00 54 1012.9
20260503213603 53 302 3.0 9.0 0.00 0.05 0.00 55 1012.7
20260503212703 53 310 4.0 11.0 0.00 0.05 0.00 56 1012.8
20260503212014 53 302 5.0 11.0 0.00 0.05 0.00 56 1012.6